| time (UTC) | temp C | wind direction | speed KPH | gust KPH | rain 1hr cm | rain 24hr cm | rain mn cm | humidity % | barometer mb |
| 20260507063047 | 10 | 131 | 0.0 | 0.0 | 0.00 | 0.00 | 0.00 | 92 | 1022.1 |
| 20260507062544 | 10 | 119 | 0.0 | 0.0 | 0.00 | 0.00 | 0.00 | 92 | 1021.8 |
| 20260507062041 | 10 | 116 | 0.0 | 0.0 | 0.00 | 0.00 | 0.00 | 92 | 1022.0 |
| 20260507061539 | 10 | 115 | 0.0 | 0.0 | 0.00 | 0.00 | 0.00 | 92 | 1022.2 |
| 20260507061037 | 11 | 100 | 0.0 | 0.0 | 0.00 | 0.00 | 0.00 | 92 | 1022.1 |
| 20260507060534 | 11 | 111 | 0.0 | 0.0 | 0.00 | 0.00 | 0.00 | 92 | 1022.1 |
| 20260507060031 | 11 | 94 | 0.0 | 0.0 | 0.00 | 0.00 | 0.00 | 92 | 1022.2 |
| 20260507055531 | 11 | 88 | 0.0 | 0.0 | 0.00 | 0.00 | 0.00 | 92 | 1022.0 |
| 20260507055028 | 11 | 102 | 0.0 | 0.0 | 0.00 | 0.00 | 0.00 | 91 | 1022.2 |
| 20260507054524 | 11 | 115 | 0.0 | 0.0 | 0.00 | 0.00 | 0.00 | 91 | 1021.9 |
| 20260507054021 | 11 | 115 | 0.0 | 0.0 | 0.00 | 0.00 | 0.00 | 91 | 1021.9 |
| 20260507053519 | 11 | 115 | 0.0 | 0.0 | 0.00 | 0.00 | 0.00 | 91 | 1022.1 |
| 20260507053018 | 11 | 117 | 0.0 | 0.0 | 0.00 | 0.00 | 0.00 | 91 | 1022.1 |
| 20260507052515 | 11 | 133 | 0.0 | 0.0 | 0.00 | 0.00 | 0.00 | 91 | 1022.2 |
| 20260507052011 | 11 | 100 | 0.0 | 0.0 | 0.00 | 0.00 | 0.00 | 91 | 1022.1 |
| 20260507051509 | 11 | 110 | 0.0 | 0.0 | 0.00 | 0.00 | 0.00 | 91 | 1022.2 |
| 20260507051006 | 11 | 120 | 0.0 | 0.0 | 0.00 | 0.00 | 0.00 | 91 | 1022.1 |
| 20260507050502 | 11 | 116 | 0.0 | 0.0 | 0.00 | 0.00 | 0.00 | 91 | 1022.2 |
| 20260507045959 | 11 | 115 | 0.0 | 0.0 | 0.00 | 0.00 | 0.00 | 91 | 1022.2 |
| 20260507045455 | 11 | 100 | 0.0 | 0.0 | 0.00 | 0.00 | 0.00 | 91 | 1022.1 |
| 20260507044953 | 11 | 121 | 0.0 | 0.0 | 0.00 | 0.00 | 0.00 | 91 | 1022.2 |
| 20260507044449 | 11 | 120 | 0.0 | 0.0 | 0.00 | 0.00 | 0.00 | 91 | 1022.1 |
| 20260507043946 | 11 | 115 | 0.0 | 0.0 | 0.00 | 0.00 | 0.00 | 91 | 1022.1 |
| 20260507043442 | 11 | 115 | 0.0 | 0.0 | 0.00 | 0.00 | 0.00 | 91 | 1022.2 |
| 20260507042938 | 11 | 120 | 0.0 | 0.0 | 0.00 | 0.00 | 0.00 | 91 | 1022.0 |
| 20260507042435 | 11 | 115 | 0.0 | 0.0 | 0.00 | 0.00 | 0.00 | 91 | 1022.1 |
| 20260507041931 | 11 | 112 | 0.0 | 0.0 | 0.00 | 0.00 | 0.00 | 90 | 1022.0 |
| 20260507041428 | 11 | 115 | 0.0 | 0.0 | 0.00 | 0.00 | 0.00 | 90 | 1022.0 |
| 20260507040925 | 11 | 113 | 0.0 | 0.0 | 0.00 | 0.00 | 0.00 | 90 | 1021.9 |
| 20260507040421 | 11 | 79 | 0.0 | 0.0 | 0.00 | 0.00 | 0.00 | 89 | 1022.0 |
| 20260507035917 | 11 | 105 | 0.0 | 0.0 | 0.00 | 0.00 | 0.00 | 89 | 1022.1 |
| 20260507035413 | 11 | 108 | 0.0 | 0.0 | 0.00 | 0.00 | 0.00 | 89 | 1022.0 |
| 20260507034910 | 11 | 86 | 0.0 | 0.0 | 0.00 | 0.00 | 0.00 | 88 | 1022.1 |
| 20260507034407 | 11 | 116 | 0.0 | 0.0 | 0.00 | 0.00 | 0.00 | 87 | 1021.9 |
| 20260507033905 | 12 | 120 | 0.0 | 0.0 | 0.00 | 0.00 | 0.00 | 87 | 1021.9 |
| 20260507033403 | 12 | 100 | 0.0 | 0.0 | 0.00 | 0.00 | 0.00 | 86 | 1021.8 |
| 20260507032900 | 12 | 171 | 0.0 | 0.0 | 0.00 | 0.00 | 0.00 | 86 | 1021.8 |
| 20260507032356 | 12 | 115 | 0.0 | 0.0 | 0.00 | 0.00 | 0.00 | 86 | 1021.9 |
| 20260507031852 | 12 | 90 | 0.0 | 0.0 | 0.00 | 0.00 | 0.00 | 86 | 1021.8 |
| 20260507031349 | 12 | 120 | 0.0 | 0.0 | 0.00 | 0.00 | 0.00 | 85 | 1021.7 |
| 20260507030846 | 12 | 110 | 0.0 | 0.0 | 0.00 | 0.00 | 0.00 | 85 | 1021.9 |
| 20260507030344 | 12 | 122 | 0.0 | 0.0 | 0.00 | 0.00 | 0.00 | 85 | 1021.6 |
| 20260507025840 | 12 | 115 | 0.0 | 0.0 | 0.00 | 0.00 | 0.00 | 85 | 1021.5 |
| 20260507025338 | 12 | 120 | 0.0 | 0.0 | 0.00 | 0.00 | 0.00 | 85 | 1021.7 |
| 20260507024835 | 12 | 145 | 0.0 | 0.0 | 0.00 | 0.00 | 0.00 | 84 | 1021.7 |
| 20260507024332 | 12 | 74 | 0.0 | 0.0 | 0.00 | 0.00 | 0.00 | 84 | 1021.7 |
| 20260507023828 | 12 | 133 | 0.0 | 0.0 | 0.00 | 0.00 | 0.00 | 84 | 1021.5 |
| 20260507023325 | 12 | 129 | 0.0 | 0.0 | 0.00 | 0.00 | 0.00 | 83 | 1021.3 |
| 20260507022822 | 12 | 121 | 0.0 | 0.0 | 0.00 | 0.00 | 0.00 | 83 | 1021.4 |
| 20260507022319 | 12 | 147 | 0.0 | 0.0 | 0.00 | 0.00 | 0.00 | 83 | 1021.3 |
| 20260507021815 | 12 | 99 | 0.0 | 1.6 | 0.00 | 0.00 | 0.00 | 83 | 1021.5 |
| 20260507021311 | 12 | 89 | 0.0 | 0.0 | 0.00 | 0.00 | 0.00 | 83 | 1021.3 |
| 20260507020809 | 12 | 124 | 0.0 | 0.0 | 0.00 | 0.00 | 0.00 | 83 | 1021.6 |
| 20260507020305 | 12 | 165 | 1.6 | 3.2 | 0.00 | 0.00 | 0.00 | 82 | 1021.4 |
| 20260507015802 | 13 | 120 | 0.0 | 0.0 | 0.00 | 0.00 | 0.00 | 82 | 1021.5 |
| 20260507015300 | 13 | 104 | 0.0 | 0.0 | 0.00 | 0.00 | 0.00 | 82 | 1021.4 |
| 20260507014756 | 13 | 88 | 0.0 | 0.0 | 0.00 | 0.00 | 0.00 | 82 | 1021.4 |
| 20260507014253 | 13 | 137 | 0.0 | 0.0 | 0.00 | 0.00 | 0.00 | 82 | 1021.5 |
| 20260507013749 | 13 | 97 | 0.0 | 0.0 | 0.00 | 0.00 | 0.00 | 81 | 1021.5 |
| 20260507013247 | 13 | 109 | 0.0 | 0.0 | 0.00 | 0.00 | 0.00 | 82 | 1021.5 |
| 20260507012744 | 13 | 89 | 0.0 | 0.0 | 0.00 | 0.00 | 0.00 | 81 | 1021.5 |
| 20260507012244 | 13 | 104 | 0.0 | 0.0 | 0.00 | 0.00 | 0.00 | 81 | 1021.5 |
| 20260507011743 | 13 | 89 | 0.0 | 0.0 | 0.00 | 0.00 | 0.00 | 81 | 1021.3 |
| 20260507011239 | 13 | 109 | 0.0 | 0.0 | 0.00 | 0.00 | 0.00 | 81 | 1021.4 |
| 20260507010738 | 13 | 150 | 1.6 | 1.6 | 0.00 | 0.00 | 0.00 | 81 | 1021.2 |
| 20260507010235 | 13 | 121 | 0.0 | 0.0 | 0.00 | 0.00 | 0.00 | 80 | 1021.5 |
| 20260507005732 | 13 | 207 | 1.6 | 3.2 | 0.00 | 0.00 | 0.00 | 81 | 1021.4 |
| 20260507005229 | 13 | 96 | 0.0 | 1.6 | 0.00 | 0.00 | 0.00 | 81 | 1021.3 |
| 20260507004725 | 13 | 165 | 3.2 | 3.2 | 0.00 | 0.00 | 0.00 | 81 | 1021.1 |
| 20260507004223 | 13 | 80 | 0.0 | 0.0 | 0.00 | 0.00 | 0.00 | 81 | 1021.5 |
| 20260507003719 | 13 | 155 | 1.6 | 1.6 | 0.00 | 0.00 | 0.00 | 81 | 1021.3 |
| 20260507003214 | 13 | 105 | 0.0 | 0.0 | 0.00 | 0.00 | 0.00 | 81 | 1021.6 |
| 20260507002710 | 13 | 217 | 1.6 | 3.2 | 0.00 | 0.00 | 0.00 | 80 | 1021.5 |
| 20260507002207 | 13 | 50 | 1.6 | 1.6 | 0.00 | 0.00 | 0.00 | 80 | 1021.6 |
| 20260507001703 | 13 | 103 | 0.0 | 0.0 | 0.00 | 0.00 | 0.00 | 81 | 1021.5 |
| 20260507001201 | 13 | 147 | 0.0 | 0.0 | 0.00 | 0.00 | 0.00 | 80 | 1021.4 |
| 20260507000657 | 13 | 108 | 0.0 | 0.0 | 0.00 | 0.00 | 0.00 | 81 | 1021.5 |
| 20260507000153 | 13 | 184 | 0.0 | 0.0 | 0.00 | 0.00 | 0.00 | 81 | 1021.3 |
| 20260506235650 | 13 | 75 | 0.0 | 0.0 | 0.00 | 0.00 | 0.00 | 81 | 1021.3 |
| 20260506235145 | 13 | 139 | 0.0 | 1.6 | 0.00 | 0.00 | 0.00 | 81 | 1021.5 |
| 20260506234643 | 13 | 118 | 0.0 | 0.0 | 0.00 | 0.00 | 0.00 | 81 | 1021.4 |
| 20260506234140 | 13 | 91 | 0.0 | 0.0 | 0.00 | 0.00 | 0.00 | 80 | 1021.6 |
| 20260506233637 | 13 | 108 | 0.0 | 0.0 | 0.00 | 0.00 | 0.00 | 80 | 1021.4 |
| 20260506233134 | 13 | 202 | 3.2 | 3.2 | 0.00 | 0.00 | 0.00 | 80 | 1021.6 |
| 20260506232630 | 13 | 208 | 3.2 | 3.2 | 0.00 | 0.00 | 0.00 | 80 | 1021.5 |
| 20260506232125 | 13 | 97 | 0.0 | 0.0 | 0.00 | 0.00 | 0.00 | 80 | 1021.5 |
| 20260506231623 | 13 | 153 | 1.6 | 1.6 | 0.00 | 0.00 | 0.00 | 80 | 1021.7 |
| 20260506231121 | 13 | 104 | 0.0 | 0.0 | 0.00 | 0.00 | 0.00 | 80 | 1021.5 |
| 20260506230617 | 13 | 94 | 0.0 | 0.0 | 0.00 | 0.00 | 0.00 | 81 | 1021.6 |
| 20260506230115 | 13 | 116 | 0.0 | 0.0 | 0.00 | 0.00 | 0.00 | 80 | 1021.5 |
| 20260506225611 | 13 | 138 | 0.0 | 0.0 | 0.00 | 0.00 | 0.00 | 81 | 1021.4 |
| 20260506225107 | 13 | 202 | 3.2 | 3.2 | 0.00 | 0.00 | 0.00 | 81 | 1021.7 |
| 20260506224604 | 13 | 96 | 0.0 | 0.0 | 0.00 | 0.00 | 0.00 | 81 | 1021.6 |
| 20260506224101 | 13 | 114 | 0.0 | 0.0 | 0.00 | 0.00 | 0.00 | 81 | 1021.6 |
| 20260506223557 | 13 | 83 | 0.0 | 0.0 | 0.00 | 0.00 | 0.00 | 81 | 1021.7 |
| 20260506223053 | 13 | 106 | 0.0 | 0.0 | 0.00 | 0.00 | 0.00 | 81 | 1021.5 |
| 20260506222550 | 13 | 82 | 0.0 | 0.0 | 0.00 | 0.00 | 0.00 | 81 | 1021.8 |
| 20260506222046 | 13 | 151 | 0.0 | 0.0 | 0.00 | 0.00 | 0.00 | 81 | 1021.4 |
| 20260506221544 | 13 | 206 | 1.6 | 3.2 | 0.00 | 0.00 | 0.00 | 81 | 1021.8 |
| 20260506221042 | 12 | 87 | 1.6 | 1.6 | 0.00 | 0.00 | 0.00 | 81 | 1021.7 |
| 20260506220538 | 12 | 174 | 1.6 | 1.6 | 0.00 | 0.00 | 0.00 | 81 | 1022.0 |
| 20260506220033 | 12 | 98 | 0.0 | 0.0 | 0.00 | 0.00 | 0.00 | 81 | 1021.9 |
| 20260506215531 | 12 | 102 | 0.0 | 0.0 | 0.00 | 0.00 | 0.00 | 81 | 1021.9 |
| 20260506215026 | 12 | 178 | 0.0 | 1.6 | 0.00 | 0.00 | 0.00 | 81 | 1021.6 |
| 20260506214524 | 12 | 128 | 0.0 | 0.0 | 0.00 | 0.00 | 0.00 | 81 | 1021.7 |
| 20260506214020 | 12 | 167 | 0.0 | 0.0 | 0.00 | 0.00 | 0.00 | 81 | 1021.7 |
| 20260506213519 | 12 | 145 | 0.0 | 0.0 | 0.00 | 0.00 | 0.00 | 81 | 1021.7 |
| 20260506213015 | 12 | 196 | 1.6 | 1.6 | 0.00 | 0.00 | 0.00 | 80 | 1021.9 |
| 20260506212512 | 12 | 139 | 0.0 | 0.0 | 0.00 | 0.00 | 0.00 | 81 | 1021.9 |
| 20260506212007 | 12 | 131 | 0.0 | 0.0 | 0.00 | 0.00 | 0.00 | 81 | 1021.8 |
| 20260506211503 | 12 | 241 | 3.2 | 3.2 | 0.00 | 0.00 | 0.00 | 81 | 1021.9 |
| 20260506211000 | 12 | 175 | 1.6 | 1.6 | 0.00 | 0.00 | 0.00 | 80 | 1021.8 |
| 20260506210457 | 12 | 95 | 0.0 | 0.0 | 0.00 | 0.00 | 0.00 | 81 | 1021.8 |
| 20260506205954 | 12 | 207 | 1.6 | 1.6 | 0.00 | 0.00 | 0.00 | 80 | 1021.8 |
| 20260506205450 | 12 | 143 | 0.0 | 1.6 | 0.00 | 0.00 | 0.00 | 80 | 1021.7 |
| 20260506204946 | 12 | 102 | 0.0 | 0.0 | 0.00 | 0.00 | 0.00 | 80 | 1021.8 |
| 20260506204444 | 13 | 121 | 0.0 | 1.6 | 0.00 | 0.00 | 0.00 | 80 | 1022.0 |
| 20260506203941 | 12 | 171 | 1.6 | 1.6 | 0.00 | 0.00 | 0.00 | 80 | 1021.9 |
| 20260506203438 | 12 | 223 | 0.0 | 1.6 | 0.00 | 0.00 | 0.00 | 80 | 1021.8 |
| 20260506202935 | 12 | 202 | 1.6 | 1.6 | 0.00 | 0.00 | 0.00 | 79 | 1021.7 |
| 20260506202432 | 13 | 207 | 1.6 | 3.2 | 0.00 | 0.00 | 0.00 | 79 | 1021.7 |
| 20260506201928 | 13 | 121 | 0.0 | 0.0 | 0.00 | 0.00 | 0.00 | 79 | 1021.7 |
| 20260506201426 | 13 | 100 | 0.0 | 0.0 | 0.00 | 0.00 | 0.00 | 79 | 1021.6 |
| 20260506200923 | 12 | 142 | 1.6 | 1.6 | 0.00 | 0.00 | 0.00 | 80 | 1021.6 |
| 20260506200419 | 12 | 206 | 0.0 | 0.0 | 0.00 | 0.00 | 0.00 | 80 | 1021.6 |
| 20260506195915 | 12 | 211 | 1.6 | 1.6 | 0.00 | 0.00 | 0.00 | 80 | 1021.6 |
| 20260506195413 | 12 | 191 | 3.2 | 3.2 | 0.00 | 0.00 | 0.00 | 79 | 1021.8 |
| 20260506194909 | 12 | 198 | 1.6 | 3.2 | 0.00 | 0.00 | 0.00 | 79 | 1021.6 |
| 20260506194406 | 12 | 177 | 1.6 | 3.2 | 0.00 | 0.00 | 0.00 | 80 | 1021.5 |
| 20260506193903 | 12 | 198 | 1.6 | 1.6 | 0.00 | 0.00 | 0.00 | 80 | 1021.5 |
| 20260506193400 | 12 | 213 | 4.8 | 4.8 | 0.00 | 0.00 | 0.00 | 80 | 1021.6 |
| 20260506192856 | 12 | 221 | 3.2 | 4.8 | 0.00 | 0.00 | 0.00 | 80 | 1021.6 |
| 20260506192353 | 12 | 162 | 0.0 | 0.0 | 0.00 | 0.00 | 0.00 | 81 | 1021.5 |
| 20260506191850 | 12 | 153 | 1.6 | 3.2 | 0.00 | 0.00 | 0.00 | 81 | 1021.4 |
| 20260506191347 | 12 | 224 | 6.4 | 8.0 | 0.00 | 0.00 | 0.00 | 81 | 1021.4 |
| 20260506190844 | 12 | 229 | 1.6 | 4.8 | 0.00 | 0.00 | 0.00 | 80 | 1021.5 |
| 20260506190340 | 12 | 214 | 3.2 | 3.2 | 0.00 | 0.00 | 0.00 | 80 | 1021.5 |
| 20260506185837 | 12 | 141 | 0.0 | 0.0 | 0.00 | 0.00 | 0.00 | 81 | 1021.5 |
| 20260506185334 | 12 | 195 | 3.2 | 3.2 | 0.00 | 0.00 | 0.00 | 80 | 1021.4 |
| 20260506184831 | 12 | 188 | 1.6 | 1.6 | 0.00 | 0.00 | 0.00 | 81 | 1021.4 |
| 20260506184328 | 12 | 175 | 4.8 | 4.8 | 0.00 | 0.00 | 0.00 | 80 | 1021.3 |
| 20260506183826 | 12 | 168 | 3.2 | 3.2 | 0.00 | 0.00 | 0.00 | 80 | 1021.4 |
| 20260506183320 | 12 | 128 | 3.2 | 4.8 | 0.00 | 0.00 | 0.00 | 81 | 1021.2 |
| 20260506182818 | 12 | 202 | 6.4 | 9.7 | 0.00 | 0.00 | 0.00 | 80 | 1021.4 |
| 20260506182315 | 12 | 162 | 1.6 | 1.6 | 0.00 | 0.00 | 0.00 | 80 | 1021.2 |
| 20260506181813 | 12 | 117 | 1.6 | 3.2 | 0.00 | 0.00 | 0.00 | 81 | 1021.5 |
| 20260506181310 | 12 | 111 | 1.6 | 3.2 | 0.00 | 0.00 | 0.00 | 81 | 1021.5 |
| 20260506180808 | 12 | 134 | 0.0 | 1.6 | 0.00 | 0.00 | 0.00 | 82 | 1021.3 |
| 20260506180303 | 12 | 217 | 4.8 | 4.8 | 0.00 | 0.00 | 0.00 | 82 | 1021.3 |
| 20260506175800 | 12 | 136 | 0.0 | 1.6 | 0.00 | 0.00 | 0.00 | 83 | 1021.4 |
| 20260506175257 | 11 | 209 | 0.0 | 1.6 | 0.00 | 0.00 | 0.00 | 83 | 1021.2 |
| 20260506174754 | 11 | 178 | 1.6 | 1.6 | 0.00 | 0.00 | 0.00 | 83 | 1021.0 |
| 20260506174251 | 11 | 132 | 0.0 | 0.0 | 0.00 | 0.00 | 0.00 | 85 | 1021.2 |
| 20260506173749 | 11 | 213 | 1.6 | 1.6 | 0.00 | 0.00 | 0.00 | 85 | 1021.0 |
| 20260506173246 | 11 | 209 | 4.8 | 4.8 | 0.00 | 0.00 | 0.00 | 85 | 1021.1 |
| 20260506172742 | 11 | 210 | 1.6 | 1.6 | 0.00 | 0.00 | 0.00 | 86 | 1021.3 |
| 20260506172239 | 11 | 70 | 0.0 | 0.0 | 0.00 | 0.00 | 0.00 | 86 | 1021.1 |
| 20260506171737 | 11 | 224 | 1.6 | 3.2 | 0.00 | 0.00 | 0.00 | 86 | 1021.3 |
| 20260506171233 | 11 | 209 | 1.6 | 3.2 | 0.00 | 0.00 | 0.00 | 87 | 1021.0 |
| 20260506170731 | 11 | 152 | 0.0 | 1.6 | 0.00 | 0.00 | 0.00 | 87 | 1021.0 |
| 20260506170228 | 11 | 99 | 1.6 | 1.6 | 0.00 | 0.00 | 0.00 | 88 | 1021.2 |
| 20260506165726 | 11 | 120 | 0.0 | 0.0 | 0.00 | 0.00 | 0.00 | 89 | 1021.2 |
| 20260506165223 | 11 | 210 | 1.6 | 3.2 | 0.00 | 0.00 | 0.00 | 90 | 1021.2 |
| 20260506164720 | 11 | 222 | 4.8 | 4.8 | 0.00 | 0.00 | 0.00 | 90 | 1021.3 |
| 20260506164217 | 11 | 129 | 1.6 | 3.2 | 0.00 | 0.00 | 0.00 | 90 | 1021.2 |
| 20260506163713 | 11 | 134 | 0.0 | 1.6 | 0.00 | 0.00 | 0.00 | 90 | 1021.2 |
| 20260506163208 | 11 | 159 | 0.0 | 0.0 | 0.00 | 0.00 | 0.00 | 91 | 1021.0 |
| 20260506162705 | 11 | 175 | 1.6 | 1.6 | 0.00 | 0.00 | 0.00 | 91 | 1020.9 |
| 20260506162202 | 11 | 160 | 1.6 | 3.2 | 0.00 | 0.00 | 0.00 | 91 | 1020.7 |
| 20260506161659 | 11 | 193 | 0.0 | 0.0 | 0.00 | 0.00 | 0.00 | 91 | 1020.8 |
| 20260506161156 | 11 | 217 | 3.2 | 3.2 | 0.00 | 0.00 | 0.00 | 91 | 1020.6 |
| 20260506160654 | 11 | 165 | 0.0 | 0.0 | 0.00 | 0.00 | 0.00 | 91 | 1020.7 |
| 20260506160150 | 11 | 105 | 0.0 | 0.0 | 0.00 | 0.00 | 0.00 | 91 | 1020.5 |
| 20260506155649 | 11 | 66 | 0.0 | 0.0 | 0.00 | 0.00 | 0.00 | 92 | 1020.5 |
| 20260506155146 | 11 | 143 | 0.0 | 0.0 | 0.00 | 0.00 | 0.00 | 92 | 1020.4 |
| 20260506153248 | 10 | 157 | 1.6 | 1.6 | 0.00 | 0.00 | 0.00 | 92 | 1020.9 |
| 20260506152745 | 10 | 129 | 0.0 | 0.0 | 0.00 | 0.00 | 0.00 | 93 | 1020.8 |
| 20260506152242 | 10 | 105 | 0.0 | 0.0 | 0.00 | 0.00 | 0.00 | 92 | 1020.9 |
| 20260506151741 | 10 | 123 | 0.0 | 0.0 | 0.00 | 0.00 | 0.00 | 93 | 1020.7 |
| 20260506151237 | 10 | 217 | 0.0 | 1.6 | 0.00 | 0.00 | 0.00 | 93 | 1020.8 |
| 20260506150733 | 10 | 121 | 0.0 | 0.0 | 0.00 | 0.00 | 0.00 | 93 | 1020.8 |
| 20260506150231 | 10 | 167 | 0.0 | 1.6 | 0.00 | 0.00 | 0.00 | 93 | 1020.9 |
| 20260506145728 | 10 | 158 | 0.0 | 0.0 | 0.00 | 0.00 | 0.00 | 93 | 1020.6 |
| 20260506145224 | 10 | 101 | 0.0 | 0.0 | 0.00 | 0.00 | 0.00 | 93 | 1020.4 |
| 20260506144722 | 10 | 106 | 0.0 | 0.0 | 0.00 | 0.00 | 0.00 | 93 | 1020.3 |
| 20260506144219 | 10 | 100 | 0.0 | 0.0 | 0.00 | 0.00 | 0.00 | 93 | 1020.6 |
| 20260506143716 | 10 | 126 | 0.0 | 0.0 | 0.00 | 0.00 | 0.00 | 93 | 1020.6 |
| 20260506143214 | 10 | 129 | 0.0 | 0.0 | 0.00 | 0.00 | 0.00 | 93 | 1020.6 |
| 20260506142712 | 10 | 117 | 0.0 | 0.0 | 0.00 | 0.00 | 0.00 | 93 | 1020.6 |
| 20260506142210 | 10 | 123 | 0.0 | 0.0 | 0.00 | 0.00 | 0.00 | 93 | 1020.8 |
| 20260506141707 | 10 | 151 | 0.0 | 0.0 | 0.00 | 0.00 | 0.00 | 93 | 1020.6 |
| 20260506141206 | 10 | 168 | 0.0 | 0.0 | 0.00 | 0.00 | 0.00 | 93 | 1020.6 |
| 20260506140703 | 10 | 210 | 1.6 | 1.6 | 0.00 | 0.00 | 0.00 | 94 | 1020.5 |
| 20260506140200 | 10 | 92 | 0.0 | 0.0 | 0.00 | 0.00 | 0.00 | 94 | 1020.3 |
| 20260506135657 | 10 | 121 | 0.0 | 0.0 | 0.00 | 0.00 | 0.00 | 94 | 1020.2 |
| 20260506135153 | 10 | 84 | 0.0 | 0.0 | 0.00 | 0.00 | 0.00 | 94 | 1020.4 |
| 20260506134649 | 10 | 132 | 0.0 | 0.0 | 0.00 | 0.00 | 0.00 | 94 | 1020.5 |
| 20260506134145 | 10 | 90 | 0.0 | 0.0 | 0.00 | 0.00 | 0.00 | 94 | 1020.4 |
| 20260506133643 | 10 | 137 | 0.0 | 0.0 | 0.00 | 0.00 | 0.00 | 94 | 1020.3 |
| 20260506133140 | 10 | 187 | 0.0 | 0.0 | 0.00 | 0.00 | 0.00 | 94 | 1020.4 |
| 20260506132637 | 10 | 136 | 0.0 | 0.0 | 0.00 | 0.00 | 0.00 | 94 | 1020.2 |
| 20260506132134 | 10 | 158 | 0.0 | 1.6 | 0.00 | 0.00 | 0.00 | 94 | 1020.4 |
| 20260506131631 | 10 | 175 | 0.0 | 0.0 | 0.00 | 0.00 | 0.00 | 94 | 1020.5 |
| 20260506131127 | 10 | 149 | 0.0 | 0.0 | 0.00 | 0.00 | 0.00 | 94 | 1019.8 |
| 20260506130624 | 10 | 121 | 0.0 | 0.0 | 0.00 | 0.00 | 0.00 | 94 | 1020.2 |
| 20260506130122 | 10 | 148 | 0.0 | 0.0 | 0.00 | 0.00 | 0.00 | 94 | 1020.1 |
| 20260506125620 | 10 | 137 | 1.6 | 1.6 | 0.00 | 0.00 | 0.00 | 94 | 1019.9 |
| 20260506125117 | 10 | 165 | 0.0 | 0.0 | 0.00 | 0.00 | 0.00 | 93 | 1019.7 |
| 20260506124615 | 10 | 84 | 0.0 | 0.0 | 0.00 | 0.00 | 0.00 | 93 | 1020.0 |
| 20260506124113 | 10 | 119 | 0.0 | 0.0 | 0.00 | 0.00 | 0.00 | 93 | 1020.0 |
| 20260506123610 | 10 | 87 | 0.0 | 0.0 | 0.00 | 0.00 | 0.00 | 93 | 1019.8 |
| 20260506123109 | 10 | 161 | 0.0 | 0.0 | 0.00 | 0.00 | 0.00 | 93 | 1019.8 |
| 20260506122605 | 10 | 73 | 0.0 | 0.0 | 0.00 | 0.00 | 0.00 | 93 | 1020.0 |
| 20260506122103 | 10 | 128 | 0.0 | 0.0 | 0.00 | 0.00 | 0.00 | 93 | 1019.8 |
| 20260506121600 | 10 | 111 | 0.0 | 0.0 | 0.00 | 0.00 | 0.00 | 93 | 1019.7 |
| 20260506121056 | 10 | 141 | 0.0 | 0.0 | 0.00 | 0.00 | 0.00 | 92 | 1019.7 |
| 20260506120555 | 10 | 104 | 0.0 | 0.0 | 0.00 | 0.00 | 0.00 | 92 | 1019.8 |
| 20260506120051 | 10 | 120 | 0.0 | 0.0 | 0.00 | 0.00 | 0.00 | 92 | 1019.9 |
| 20260506115549 | 10 | 149 | 0.0 | 0.0 | 0.00 | 0.00 | 0.00 | 92 | 1019.9 |
| 20260506115048 | 10 | 114 | 0.0 | 0.0 | 0.00 | 0.00 | 0.00 | 91 | 1019.7 |
| 20260506114545 | 10 | 125 | 0.0 | 0.0 | 0.00 | 0.00 | 0.00 | 91 | 1019.8 |
| 20260506114043 | 10 | 163 | 0.0 | 0.0 | 0.00 | 0.00 | 0.00 | 91 | 1019.7 |
| 20260506113541 | 10 | 132 | 0.0 | 0.0 | 0.00 | 0.00 | 0.00 | 91 | 1019.8 |
| 20260506113038 | 11 | 209 | 0.0 | 0.0 | 0.00 | 0.00 | 0.00 | 90 | 1019.4 |
| 20260506112534 | 11 | 212 | 0.0 | 1.6 | 0.00 | 0.00 | 0.00 | 91 | 1019.3 |
| 20260506112031 | 11 | 89 | 0.0 | 0.0 | 0.00 | 0.00 | 0.00 | 91 | 1019.5 |
| 20260506111529 | 11 | 119 | 0.0 | 0.0 | 0.00 | 0.00 | 0.00 | 91 | 1019.3 |
| 20260506111026 | 11 | 71 | 0.0 | 0.0 | 0.00 | 0.00 | 0.00 | 91 | 1019.4 |
| 20260506110524 | 11 | 128 | 0.0 | 0.0 | 0.00 | 0.00 | 0.00 | 91 | 1019.4 |
| 20260506110021 | 11 | 127 | 0.0 | 0.0 | 0.00 | 0.00 | 0.00 | 91 | 1019.5 |
| 20260506105517 | 11 | 111 | 0.0 | 0.0 | 0.00 | 0.00 | 0.00 | 91 | 1019.4 |
| 20260506105015 | 11 | 121 | 0.0 | 0.0 | 0.00 | 0.00 | 0.00 | 90 | 1019.2 |
| 20260506104513 | 11 | 123 | 0.0 | 0.0 | 0.00 | 0.00 | 0.00 | 90 | 1019.3 |
| 20260506104010 | 11 | 113 | 0.0 | 0.0 | 0.00 | 0.00 | 0.00 | 90 | 1019.2 |
| 20260506103507 | 11 | 125 | 0.0 | 0.0 | 0.00 | 0.00 | 0.00 | 90 | 1019.2 |
| 20260506103004 | 11 | 110 | 0.0 | 0.0 | 0.00 | 0.00 | 0.00 | 91 | 1019.3 |
| 20260506102502 | 11 | 119 | 0.0 | 0.0 | 0.00 | 0.00 | 0.00 | 91 | 1019.2 |
| 20260506101959 | 11 | 115 | 0.0 | 0.0 | 0.00 | 0.00 | 0.00 | 91 | 1019.1 |
| 20260506101455 | 11 | 93 | 0.0 | 0.0 | 0.00 | 0.00 | 0.00 | 91 | 1019.0 |
| 20260506100953 | 11 | 135 | 0.0 | 0.0 | 0.00 | 0.00 | 0.00 | 91 | 1018.9 |
| 20260506100451 | 11 | 122 | 0.0 | 0.0 | 0.00 | 0.00 | 0.00 | 91 | 1019.0 |
| 20260506095949 | 11 | 123 | 0.0 | 0.0 | 0.00 | 0.00 | 0.00 | 91 | 1019.0 |
| 20260506095447 | 11 | 120 | 0.0 | 0.0 | 0.00 | 0.00 | 0.00 | 91 | 1019.1 |
| 20260506094942 | 11 | 118 | 0.0 | 0.0 | 0.00 | 0.00 | 0.00 | 91 | 1019.0 |
| 20260506094441 | 11 | 124 | 0.0 | 0.0 | 0.00 | 0.00 | 0.00 | 91 | 1018.9 |
| 20260506093939 | 10 | 124 | 0.0 | 0.0 | 0.00 | 0.00 | 0.00 | 91 | 1018.8 |
| 20260506093437 | 10 | 128 | 0.0 | 0.0 | 0.00 | 0.00 | 0.00 | 91 | 1018.9 |
| 20260506092934 | 10 | 119 | 0.0 | 0.0 | 0.00 | 0.00 | 0.00 | 91 | 1018.8 |
| 20260506092432 | 10 | 116 | 0.0 | 0.0 | 0.00 | 0.00 | 0.00 | 91 | 1018.8 |
| 20260506091928 | 10 | 124 | 0.0 | 0.0 | 0.00 | 0.00 | 0.00 | 91 | 1018.7 |
| 20260506091427 | 10 | 127 | 0.0 | 0.0 | 0.00 | 0.00 | 0.00 | 91 | 1018.9 |
| 20260506090923 | 10 | 123 | 0.0 | 0.0 | 0.00 | 0.00 | 0.00 | 91 | 1018.8 |
| 20260506090421 | 10 | 129 | 0.0 | 0.0 | 0.00 | 0.00 | 0.00 | 91 | 1018.5 |
| 20260506085918 | 10 | 123 | 0.0 | 0.0 | 0.00 | 0.00 | 0.00 | 91 | 1018.7 |
| 20260506085414 | 10 | 112 | 0.0 | 0.0 | 0.00 | 0.00 | 0.00 | 91 | 1018.6 |
| 20260506084910 | 10 | 130 | 0.0 | 0.0 | 0.00 | 0.00 | 0.00 | 91 | 1018.6 |
| 20260506084407 | 10 | 130 | 0.0 | 0.0 | 0.00 | 0.00 | 0.00 | 91 | 1018.6 |
| 20260506083904 | 10 | 130 | 0.0 | 0.0 | 0.00 | 0.00 | 0.00 | 91 | 1018.5 |
| 20260506083401 | 10 | 120 | 0.0 | 0.0 | 0.00 | 0.00 | 0.00 | 91 | 1018.5 |
| 20260506082858 | 10 | 116 | 0.0 | 0.0 | 0.00 | 0.00 | 0.00 | 91 | 1018.5 |
| 20260506082355 | 10 | 150 | 0.0 | 0.0 | 0.00 | 0.00 | 0.00 | 91 | 1018.4 |
| 20260506081851 | 10 | 119 | 0.0 | 0.0 | 0.00 | 0.00 | 0.00 | 90 | 1018.5 |
| 20260506081349 | 10 | 103 | 0.0 | 0.0 | 0.00 | 0.00 | 0.00 | 90 | 1018.6 |
| 20260506080847 | 10 | 103 | 0.0 | 0.0 | 0.00 | 0.00 | 0.00 | 90 | 1018.5 |
| 20260506080343 | 10 | 106 | 0.0 | 0.0 | 0.00 | 0.00 | 0.00 | 89 | 1018.3 |
| 20260506073327 | 11 | 115 | 0.0 | 0.0 | 0.00 | 0.00 | 0.00 | 89 | 1018.1 |
| 20260506072824 | 11 | 132 | 0.0 | 0.0 | 0.00 | 0.00 | 0.00 | 89 | 1018.1 |
| 20260506072322 | 11 | 126 | 0.0 | 0.0 | 0.00 | 0.00 | 0.00 | 89 | 1018.2 |
| 20260506071819 | 11 | 126 | 0.0 | 0.0 | 0.00 | 0.00 | 0.00 | 88 | 1017.9 |
| 20260506071317 | 11 | 133 | 0.0 | 0.0 | 0.00 | 0.00 | 0.00 | 88 | 1018.0 |
| 20260506070814 | 11 | 120 | 0.0 | 0.0 | 0.00 | 0.00 | 0.00 | 88 | 1018.0 |
| 20260506070311 | 11 | 117 | 0.0 | 0.0 | 0.00 | 0.00 | 0.00 | 88 | 1017.9 |